This demonstration page uses our WeatherBlox Daily Observations layout. Learn more.

41.55636, -103.73856

Hourly Observations for April 6, 2019

Temp ( °F °C ) Dew Point ( °F °C ) Humidity (%) Winds ( mph kmh ) Pressure ( in mb ) Visibility ( mi km ) Precip ( " mm )
12:53 am 00:53 Mostly Cloudy 47 8.3 37 2.8 69 69 E 3 6 29.74 1007 10 16.09344 0 0
1:53 am 01:53 Clear 48 8.9 38 3.3 68 68 ENE 7 11 29.71 1006 10 16.09344 0 0
2:53 am 02:53 Clear 46 7.8 37 2.8 71 71 N 7 11 29.68 1005 10 16.09344 0 0
3:53 am 03:53 Clear 43 6.1 36 2.2 76 76 WNW 10 17 29.71 1006 10 16.09344 0 0
4:53 am 04:53 Clear 40 4.4 36 2.2 86 86 NW 12 19 29.71 1006 10 16.09344 0 0
5:53 am 05:53 Clear 44 6.7 36 2.2 73 73 NW 8 13 29.74 1007 10 16.09344 0 0
6:53 am 06:53 Sunny 41 5 35 1.7 79 79 NW 8 13 29.77 1008 10 16.09344 0 0
7:53 am 07:53 Sunny 45 7.2 37 2.8 74 74 NW 8 13 29.77 1008 10 16.09344 0 0
8:53 am 08:53 Sunny 50 10 37 2.8 61 61 NW 12 19 29.77 1008 10 16.09344 0 0
9:53 am 09:53 Sunny 58 14.4 37 2.8 46 46 NW 10 17 29.77 1008 10 16.09344 0 0
10:53 am 10:53 Sunny 63 17.2 37 2.8 38 38 WNW 12 19 29.74 1007 10 16.09344 0 0
11:53 am 11:53 Sunny 67 19.4 37 2.8 33 33 WNW 10 17 29.71 1006 10 16.09344 0 0
12:53 pm 12:53 Sunny 72 22.2 32 0 23 23 WNW 14 22 29.68 1005 10 16.09344 0 0
1:53 pm 13:53 Mostly Sunny 70 21.1 29 -1.7 22 22 W 12 19 29.68 1005 10 16.09344 0 0
2:53 pm 14:53 Mostly Cloudy 73 22.8 30 -1.1 20 20 WNW 10 17 29.65 1004 10 16.09344 0 0
3:53 pm 15:53 Mostly Cloudy 73 22.8 32 0 22 22 WNW 15 24 29.65 1004 10 16.09344 0 0
4:53 pm 16:53 Mostly Cloudy 70 21.1 32 0 25 25 NW 7 11 29.68 1005 10 16.09344 0 0
5:53 pm 17:53 Partly Cloudy 67 19.4 35 1.7 31 31 SW 18 30 29.68 1005 10 16.09344 0.001 0.001
6:53 pm 18:53 Partly Cloudy 64 17.8 36 2.2 35 35 WSW 9 15 29.71 1006 10 16.09344 0 0
7:53 pm 19:53 Mostly Cloudy 63 17.2 34 1.1 34 34 WSW 16 26 29.74 1007 10 16.09344 0 0
8:53 pm 20:53 Clear 58 14.4 35 1.7 42 42 W 9 15 29.77 1008 10 16.09344 0 0
9:53 pm 21:53 Partly Cloudy 60 15.6 35 1.7 39 39 W 17 28 29.74 1007 10 16.09344 0 0
10:53 pm 22:53 Clear 56 13.3 30 -1.1 37 37 W 17 28 29.77 1008 10 16.09344 0 0
11:53 pm 23:53 Clear 55 12.8 31 -0.6 40 40 W 14 22 29.77 1008 10 16.09344 0 0

Powered by AerisWeather